Theta_e
311 310 309 309 310 309 309 310 310 310 311 312 312 313 313 313 313 314 314 314 315 316 315 315 316 317 319 322 323 323 323 323 323 323 324 324 325 326 326 326 326 325 324 324 326 328 329 329 329 329 329 328 328 328 329 330 331 331 331 330 330 328 327 327 323 318 317 315 309 302 297 296 296 296
309 309 309 309 309 309 309 310 311 310 311 311 311 312 312 313 313 314 314 314 314 315 316 316 315 316 318 320 320 320 321 322 321 320 321 322 322 323 323 323 323 324 323 322 322 325 328 329 329 328 328 328 328 328 328 329 330 330 331 330 330 330 328 328 327 320 316 315 313 308 302 298 296 295
309 310 309 308 308 308 308 310 311 310 310 310 309 310 310 312 313 313 314 314 314 314 315 316 316 316 316 315 316 317 318 317 317 317 318 318 319 320 321 321 321 321 321 321 320 320 323 326 327 327 326 327 327 327 328 328 328 329 330 330 330 330 329 328 328 324 318 313 312 310 306 301 298 296
309 309 309 309 308 307 306 308 310 309 309 309 309 309 309 310 311 312 313 313 313 313 314 314 314 315 315 315 315 315 315 315 315 316 318 319 319 320 321 321 321 321 321 321 321 320 319 321 323 324 324 324 325 325 326 327 328 328 328 329 330 329 329 329 328 327 322 315 311 311 309 306 303 299
308 308 308 308 308 307 307 308 308 308 309 310 309 309 310 310 310 310 311 311 312 312 312 313 313 313 314 314 313 314 314 315 316 317 318 319 320 320 321 321 321 321 321 322 322 322 321 320 322 323 323 323 323 323 324 325 326 327 327 328 329 329 330 329 328 328 325 319 313 311 311 311 309 305
309 308 308 308 308 307 307 307 307 307 308 308 307 308 309 309 309 309 309 309 310 310 310 310 311 311 312 312 312 313 314 314 314 315 315 315 316 316 317 318 319 319 320 321 322 323 323 323 322 323 323 323 323 322 323 324 325 326 327 327 328 328 329 329 328 326 325 322 317 313 312 312 312 310
309 309 309 308 307 307 307 307 307 307 307 307 307 307 307 308 309 309 309 310 309 310 310 309 310 310 311 311 311 311 312 312 312 312 312 313 313 313 314 314 315 316 317 319 321 321 321 321 321 323 324 324 324 324 324 324 324 326 326 327 327 327 328 328 328 326 325 324 319 316 315 313 312 312
308 308 308 307 307 306 307 307 307 307 307 308 307 306 306 307 307 308 309 310 310 310 310 310 309 309 310 310 310 310 310 310 310 311 311 312 313 313 313 314 314 316 316 317 318 319 320 320 320 321 323 324 324 325 324 324 325 325 326 326 327 327 327 327 328 328 327 325 321 319 317 315 313 312
307 307 307 307 307 306 306 307 307 307 307 307 306 306 306 305 305 306 307 308 308 308 309 309 309 309 309 309 310 310 309 310 309 310 310 311 311 312 313 314 314 315 316 317 318 318 319 319 318 319 321 322 322 324 324 325 325 325 325 326 326 326 327 327 327 327 328 327 323 320 318 316 314 312
307 307 306 306 305 305 305 306 306 306 306 306 306 306 306 305 306 306 306 306 306 306 307 307 307 308 308 308 309 309 309 310 310 310 310 310 310 311 311 313 314 315 316 317 318 318 318 318 318 317 318 319 320 322 323 324 324 324 325 325 326 326 327 327 327 327 327 327 323 320 318 316 315 314
306 305 305 305 304 304 304 304 305 305 305 305 305 304 305 305 305 305 306 306 306 306 306 306 307 307 307 307 308 308 308 309 309 310 310 311 311 312 314 315 315 316 317 318 318 319 319 319 319 318 316 317 318 319 321 322 323 324 325 325 326 327 326 326 326 326 326 326 324 321 319 316 315 314
304 303 303 303 303 303 303 303 302 302 301 301 301 301 302 302 303 303 304 305 305 306 306 306 307 306 307 307 307 308 307 308 309 310 311 312 312 313 313 313 313 313 314 316 317 318 320 320 321 320 319 318 317 316 316 317 320 322 324 325 325 326 326 326 326 325 325 324 323 321 319 318 316 315
303 302 302 302 301 302 301 298 296 295 294 295 296 297 299 300 301 302 302 303 304 305 305 305 306 306 306 307 307 307 308 308 309 309 310 311 311 311 312 311 311 311 312 313 315 317 320 321 322 321 321 321 320 318 315 315 318 321 323 324 325 325 326 326 325 324 323 323 321 320 320 319 317 315
302 302 302 301 301 300 298 296 294 293 293 293 294 295 296 297 298 299 300 301 302 302 303 303 304 304 305 306 306 306 307 307 307 308 308 309 309 310 311 311 311 311 312 313 314 315 316 318 319 319 319 321 322 321 319 320 320 321 321 322 323 324 324 325 325 324 324 323 321 319 319 318 317 316
302 302 302 301 301 300 299 298 298 297 296 296 295 296 296 296 296 296 297 298 299 300 301 302 302 303 304 305 305 305 306 306 306 307 308 308 309 309 310 311 311 312 312 314 315 316 316 316 317 317 317 319 321 321 322 322 321 321 320 320 321 322 322 322 323 323 324 324 322 320 319 318 317 316
302 302 301 301 301 301 300 300 300 299 298 297 297 297 296 296 296 296 296 297 297 298 299 300 301 301 302 303 304 305 305 305 306 306 307 308 308 309 309 310 311 311 312 313 313 315 315 315 316 316 317 317 318 319 320 320 321 320 320 319 319 319 319 320 320 321 321 323 324 322 320 319 318 317
301 301 301 301 301 301 300 299 299 299 299 299 299 298 297 297 297 297 297 297 297 297 298 298 299 299 300 301 302 303 303 304 304 305 306 306 307 307 307 308 309 310 310 311 312 313 313 314 314 315 316 316 316 317 318 319 319 319 319 319 318 317 316 316 318 318 319 320 322 323 322 320 318 318
301 301 300 300 300 300 300 300 300 300 300 300 299 298 298 298 298 298 298 298 298 298 298 298 298 299 299 300 300 301 301 302 303 303 304 305 305 305 305 305 306 307 308 308 309 310 311 312 313 313 314 315 315 317 318 318 318 318 318 317 317 316 315 315 315 316 317 318 320 321 322 321 319 317
300 300 300 300 300 300 300 300 300 299 299 298 298 297 297 297 297 298 299 299 299 299 298 298 299 299 300 300 300 300 300 300 300 300 301 302 302 303 303 304 304 304 305 306 307 309 310 310 311 312 312 313 314 316 318 317 317 316 315 315 315 314 314 313 314 315 316 316 318 320 321 321 319 317
300 300 300 300 300 300 300 300 299 298 297 297 297 296 296 297 297 298 298 299 298 298 298 298 299 299 299 299 299 299 298 298 297 297 298 299 300 301 302 303 303 303 303 304 305 306 307 308 309 309 310 311 312 315 316 316 315 314 313 313 312 311 311 311 312 314 315 316 316 318 319 320 319 317
301 301 300 300 300 300 300 300 298 297 296 296 296 296 296 297 297 298 298 298 298 298 298 297 297 297 297 296 296 296 296 296 296 295 296 297 299 300 301 302 302 302 303 303 304 305 306 307 307 308 309 310 310 312 314 314 313 312 312 311 310 309 309 309 311 313 315 316 316 317 318 318 318 315
301 301 300 299 299 300 299 299 298 297 296 296 296 296 296 297 297 297 297 297 297 297 297 297 297 297 297 296 296 296 296 296 295 295 296 297 298 299 300 301 301 301 302 302 303 304 305 306 307 307 309 309 310 310 312 312 311 310 310 308 308 307 307 307 309 311 314 315 316 316 317 316 314 311
301 301 300 299 299 299 298 298 297 296 295 295 296 296 296 296 296 296 296 296 296 296 296 297 297 297 297 297 297 297 296 296 296 296 296 297 297 298 298 299 300 300 301 301 302 303 304 304 305 306 307 308 308 310 312 311 309 309 308 307 305 305 305 306 307 309 311 313 315 315 315 314 311 308
300 300 299 299 298 297 297 296 296 295 294 294 294 294 295 295 296 295 295 294 294 294 294 294 295 295 295 296 296 296 296 297 296 296 297 297 297 297 298 298 299 299 300 300 301 302 303 304 304 306 306 307 308 310 311 310 307 306 306 305 304 304 304 305 305 307 309 310 311 312 310 309 308 306
298 298 298 298 297 296 296 295 294 294 293 292 291 292 293 294 293 293 292 292 292 292 292 293 293 293 294 294 295 295 295 296 296 296 297 297 297 297 297 298 298 298 299 299 299 300 301 302 303 304 305 306 306 308 309 308 305 304 304 304 303 302 302 304 303 304 305 305 305 305 304 304 304 305
297 297 297 297 297 296 295 294 293 292 292 291 290 291 291 291 291 290 290 291 291 291 291 291 292 292 293 293 294 294 295 295 295 296 296 296 296 297 297 297 297 298 298 298 298 299 300 300 302 302 304 305 306 307 308 307 305 304 303 303 302 300 300 302 301 300 299 299 299 299 300 300 301 301
297 297 298 298 297 296 295 294 293 292 291 290 290 291 291 290 290 290 290 290 291 291 291 291 292 292 292 293 293 293 294 294 295 295 295 295 296 296 296 297 297 297 297 298 298 298 299 299 300 301 302 303 304 305 307 307 306 304 302 302 301 299 298 299 299 298 296 296 296 297 297 297 298 298
297 297 297 296 295 294 293 292 291 291 291 291 291 291 291 291 290 291 291 291 291 291 291 291 292 292 292 292 293 293 293 294 294 294 295 295 295 295 296 296 296 297 297 297 297 298 298 298 299 300 300 301 302 303 305 306 306 304 302 301 300 298 296 297 297 296 295 294 295 295 295 295 295 296
296 295 295 294 293 292 291 291 291 292 292 292 291 291 291 291 291 291 291 292 292 292 292 292 292 292 292 293 293 293 293 293 294 294 294 295 295 295 295 295 296 296 296 296 297 297 297 298 298 298 299 300 301 302 303 304 305 304 302 300 298 297 296 295 295 294 294 293 294 294 294 294 294 294
296 295 293 292 292 292 292 292 292 292 292 292 292 291 292 292 292 292 292 292 292 292 292 292 292 293 293 293 293 293 293 294 294 294 295 295 295 295 295 295 295 296 296 296 296 296 297 297 297 298 298 299 300 301 302 303 305 304 301 299 298 296 295 295 294 293 293 293 293 293 293 293 293 293
295 293 292 292 293 293 293 293 292 292 292 292 292 292 292 292 292 292 292 292 292 292 292 293 293 293 293 293 293 294 294 294 294 294 295 295 295 295 295 295 295 296 296 296 296 296 296 296 297 297 298 298 299 300 300 302 304 303 300 298 298 296 295 294 293 293 292 292 292 292 292 292 292 292
292 292 292 293 294 294 294 293 292 292 292 292 292 292 292 292 292 292 292 292 292 292 292 292 292 293 293 293 293 294 294 294 294 294 294 295 295 295 295 295 295 295 295 295 295 295 295 296 296 296 297 298 299 299 300 301 303 301 299 298 297 296 295 294 293 292 292 292 292 292 292 292 292 292
291 292 293 294 294 294 293 293 292 292 292 292 291 291 291 292 292 292 292 292 292 292 292 292 292 292 292 293 293 293 294 294 294 294 294 294 295 295 294 294 294 294 294 294 294 295 295 296 296 296 297 298 298 299 300 301 301 301 299 298 297 295 294 294 293 292 292 292 292 292 292 292 292 292
292 293 293 294 293 293 292 292 292 291 291 291 291 291 291 291 291 291 291 291 291 291 291 291 291 292 292 292 292 293 293 293 293 293 293 294 294 294 294 294 294 294 294 294 294 294 295 295 296 296 297 297 298 298 298 299 300 300 299 298 297 295 294 293 293 292 292 292 292 292 292 292 292 292
292 293 293 293 293 292 292 291 291 291 291 291 291 291 291 291 291 291 291 291 291 291 291 291 291 291 291 291 292 292 292 292 293 293 293 293 293 293 294 294 294 294 294 294 294 294 295 295 296 296 297 298 298 298 298 298 299 299 299 297 296 295 294 293 293 292 292 292 292 291 291 292 292 292
293 293 293 292 292 292 291 291 291 291 291 291 291 291 291 291 291 291 291 291 290 290 290 290 290 290 290 291 291 291 291 292 292 292 292 293 293 293 293 293 294 294 294 294 294 294 295 295 296 297 297 297 298 298 298 299 299 299 298 296 295 295 294 293 293 292 292 292 292 291 292 292 292 292
293 292 292 292 292 291 291 291 291 291 291 291 291 291 290 290 290 290 290 290 290 290 290 290 290 290 290 290 290 291 291 291 291 292 292 292 293 293 293 293 293 293 294 294 294 295 295 296 296 297 297 297 297 297 298 299 299 300 300 298 295 294 294 293 292 292 292 292 292 292 292 292 292 292
292 292 292 291 291 291 291 291 291 291 291 291 290 290 290 290 290 290 290 289 289 289 289 289 289 289 290 290 290 290 291 291 291 292 292 292 293 293 293 293 293 294 294 294 294 295 295 296 296 297 297 297 296 296 296 297 297 298 299 299 297 294 293 293 293 292 291 291 291 292 292 292 292 291
292 291 291 291 291 290 291 290 290 291 290 290 290 290 290 290 290 289 289 289 289 289 289 289 289 289 289 290 290 290 291 291 291 291 292 293 293 293 293 293 293 294 294 294 294 295 295 296 296 297 297 297 296 297 297 296 296 297 297 298 298 295 293 292 292 291 291 291 291 291 291 291 291 291
291 291 291 290 290 290 290 290 290 290 290 290 290 290 289 289 289 289 289 289 289 289 289 289 289 289 289 289 290 290 290 290 291 291 292 293 293 293 293 293 293 293 294 294 295 295 296 296 296 296 296 296 297 297 297 296 296 296 296 296 297 297 295 293 292 291 291 291 291 290 290 290 290 289
291 290 290 290 290 290 290 290 290 290 290 290 289 289 289 289 289 289 289 289 289 288 288 289 289 289 289 289 289 290 290 290 291 291 292 292 293 293 292 292 293 293 294 294 295 295 296 296 296 296 296 296 296 296 296 295 294 294 294 293 294 295 295 294 293 292 291 290 290 290 290 289 289 289
291 290 290 290 290 290 290 290 290 290 289 289 289 289 289 289 289 289 289 288 288 288 288 288 289 289 289 289 289 289 290 290 290 291 291 292 292 292 292 292 292 293 294 294 295 296 296 296 296 296 296 297 296 296 295 294 293 292 292 292 292 293 293 292 292 292 291 291 291 290 290 289 289 289
291 290 290 290 290 290 290 290 289 289 289 288 288 288 288 288 288 288 288 288 288 288 288 288 289 289 289 289 289 290 290 290 290 291 291 291 292 292 292 292 293 293 294 295 296 296 296 296 297 297 297 296 296 295 294 293 292 291 291 291 291 292 291 291 291 291 290 290 291 290 290 290 289 289
290 290 290 290 290 290 290 289 289 288 288 288 288 288 288 288 288 288 288 288 288 288 288 288 289 289 289 289 289 290 290 290 291 291 291 292 292 292 292 293 293 294 294 295 295 296 296 296 296 296 296 296 296 295 293 292 291 291 291 291 291 290 290 290 290 290 290 290 290 290 290 290 289 289
290 290 290 290 290 290 289 289 288 288 288 288 288 288 288 288 288 288 288 288 288 288 288 288 288 289 289 289 289 289 290 290 290 291 292 292 292 292 292 293 294 294 294 295 295 295 295 296 296 296 296 295 294 293 292 291 291 290 290 290 290 289 289 289 289 289 289 289 290 290 290 290 290 289
Wind_Speed
3 3 4 3 3 4 5 5 5 6 6 7 7 7 7 6 5 5 5 5 6 8 9 12 12 10 6 5 6 7 8 9 9 9 11 12 13 14 14 15 16 16 16 15 16 21 23 22 21 20 21 22 23 25 28 30 31 32 34 34 35 35 35 34 32 32 30 29 29 29 28 28 26 25
3 2 2 1 1 2 3 4 4 5 5 6 7 7 7 7 7 6 6 6 8 10 9 9 11 13 13 10 9 9 9 10 12 12 13 13 14 15 15 16 17 18 20 18 16 16 19 20 19 19 19 20 21 21 24 27 30 33 34 35 37 37 37 36 35 34 34 33 32 31 30 29 28 27
3 3 2 1 0 1 2 2 2 3 4 5 6 7 8 8 8 8 8 7 8 11 10 10 11 14 15 14 13 13 12 14 16 16 15 15 16 18 19 20 21 21 21 21 20 18 18 18 18 18 18 18 19 19 20 22 26 30 33 35 37 39 39 38 37 36 37 37 35 33 32 31 31 30
4 3 3 2 2 1 2 3 3 3 4 4 5 6 6 7 7 8 9 8 9 11 12 13 13 13 14 14 14 15 15 16 16 15 15 15 16 17 18 19 20 20 19 18 19 19 20 21 21 20 20 20 20 20 21 22 23 26 30 33 37 39 40 41 41 39 39 39 38 36 35 32 33 34
4 3 3 3 3 3 3 3 4 4 4 5 6 6 6 6 6 7 9 10 11 12 12 13 14 13 14 14 14 14 15 15 15 15 15 15 16 16 17 17 17 18 18 18 19 19 20 22 23 24 24 23 23 23 23 24 24 25 26 30 34 38 41 43 45 44 41 40 41 40 37 34 34 36
5 4 4 3 3 3 4 4 5 5 5 5 6 6 6 7 7 7 9 10 11 12 13 13 14 14 13 14 14 13 14 15 15 16 16 17 17 17 17 17 17 18 18 17 18 18 18 20 21 24 25 25 26 26 26 26 27 27 27 28 31 35 39 43 47 47 44 43 43 42 40 37 36 38
6 5 5 4 4 4 4 5 6 6 6 6 6 6 7 8 9 9 9 10 11 13 14 13 14 13 13 13 14 15 15 15 15 16 17 17 17 18 18 18 18 19 19 19 19 19 20 21 21 22 24 25 26 26 27 28 28 28 29 29 31 33 37 40 44 47 46 46 46 44 42 40 39 40
7 6 5 5 4 4 4 5 6 6 6 6 7 8 8 9 9 9 9 10 11 13 14 14 14 14 15 15 15 15 15 15 15 16 16 16 17 17 17 18 18 19 20 20 20 21 22 22 22 23 23 24 25 27 27 28 29 29 29 30 31 33 35 38 42 46 48 49 50 48 45 43 42 42
7 6 6 5 5 4 5 5 5 6 6 7 8 9 9 10 10 10 10 11 12 14 15 16 16 15 16 16 16 15 15 16 15 15 15 16 17 17 17 17 18 19 20 19 20 21 22 23 24 25 25 24 24 26 27 28 28 29 30 31 31 33 35 37 40 44 48 51 52 51 49 47 45 45
7 7 6 5 5 5 5 5 6 6 7 8 9 10 10 11 11 11 12 12 13 15 16 16 17 16 16 16 16 15 15 15 15 15 15 16 16 17 17 17 17 18 19 20 21 22 22 23 24 25 27 27 26 24 25 27 28 29 29 30 30 31 33 36 39 42 46 51 53 53 52 49 47 47
8 7 6 6 5 5 5 5 5 6 6 7 8 10 10 11 12 12 13 13 14 15 16 16 16 16 16 16 16 15 15 15 15 15 15 15 14 14 14 14 14 15 16 18 21 22 23 23 23 22 23 27 28 26 24 24 26 27 28 29 29 29 30 33 37 39 43 48 52 53 52 50 48 48
8 8 7 7 6 6 6 6 6 6 7 8 9 9 10 11 12 13 14 14 14 15 16 16 16 16 16 15 15 15 14 14 14 13 13 14 14 14 15 16 17 17 17 18 19 20 22 23 23 22 22 24 26 28 28 26 25 25 26 28 28 28 28 30 33 36 39 45 49 51 52 52 51 50
8 8 8 8 8 9 10 9 10 11 10 9 10 10 10 11 12 13 14 14 15 15 16 16 16 16 16 15 15 14 13 14 14 14 15 16 16 17 18 18 18 18 18 19 18 17 17 19 20 20 21 21 20 23 27 27 25 23 24 25 26 26 27 28 30 34 36 39 43 47 50 53 52 50
9 8 8 9 11 13 12 11 11 11 10 10 10 11 11 11 13 14 15 15 16 16 16 16 16 16 17 16 16 16 15 15 16 17 17 17 18 18 17 17 16 16 17 18 19 18 17 17 18 18 18 18 16 17 22 23 23 23 22 22 23 23 24 25 27 30 33 35 37 40 45 49 50 50
9 9 8 8 10 12 11 10 9 9 9 11 11 11 11 12 14 15 16 17 17 17 17 17 17 17 18 18 17 17 17 16 17 17 17 17 17 16 15 15 14 13 14 15 16 17 17 17 18 18 17 16 15 15 17 19 20 22 21 21 21 21 22 23 24 27 29 31 33 34 37 43 48 50
8 9 8 8 8 9 9 9 9 10 12 13 12 11 12 14 16 17 17 18 18 18 18 19 19 18 19 19 18 17 17 17 17 17 17 17 17 17 16 16 15 15 15 17 18 18 17 17 18 19 18 17 17 18 17 17 18 20 21 23 23 21 21 21 22 24 26 29 31 31 32 37 42 47
8 8 8 8 8 8 9 10 10 11 12 11 10 11 13 16 18 19 19 19 19 20 20 21 21 20 20 20 19 17 18 19 19 18 18 18 18 19 19 19 19 17 16 18 19 19 17 16 17 19 19 17 19 21 22 21 21 22 22 23 24 23 21 19 20 22 24 27 30 31 31 32 36 42
9 8 8 9 8 8 8 9 9 9 9 10 10 11 14 16 18 20 21 22 23 24 24 25 24 22 21 22 21 20 20 20 19 19 19 19 20 21 22 22 22 22 20 20 20 20 18 16 18 19 18 18 19 19 20 22 23 23 22 23 24 24 23 21 20 21 23 26 29 31 31 31 33 37
10 9 9 10 9 9 9 10 10 10 10 11 13 14 16 17 19 19 20 21 22 24 26 27 26 24 23 22 22 21 20 20 20 21 21 21 22 23 24 25 24 23 21 19 19 20 19 17 19 20 18 18 20 18 17 20 22 22 21 21 23 24 24 24 23 22 23 25 27 29 31 31 31 32
10 10 10 10 10 9 10 10 11 11 12 13 15 16 17 18 19 19 19 20 22 24 26 27 28 28 28 27 27 26 26 28 29 28 26 23 21 22 23 23 22 21 19 18 20 22 22 19 20 22 20 20 21 19 18 20 21 20 19 19 22 24 24 24 24 24 23 23 25 28 29 29 29 28
11 11 11 10 10 10 10 12 14 15 16 15 15 17 18 18 19 19 19 21 23 24 26 28 29 31 31 31 31 30 31 33 32 30 27 23 21 23 21 20 20 21 19 17 18 21 23 20 20 22 22 22 23 20 17 16 16 16 17 18 21 23 25 25 24 23 23 22 23 25 25 25 24 23
10 11 12 12 12 12 13 14 16 17 17 15 15 17 18 18 20 20 20 21 22 23 24 27 28 29 29 29 30 31 31 30 28 28 26 22 23 26 24 21 22 23 22 20 18 20 22 20 20 21 20 21 23 22 18 13 10 10 13 17 19 22 24 24 23 22 21 21 20 21 22 21 20 20
9 10 11 12 12 13 14 15 15 15 16 15 15 17 18 20 23 23 22 21 22 22 23 24 25 25 25 26 28 28 28 27 26 27 26 23 24 28 28 27 23 18 17 17 17 19 21 20 20 20 17 16 17 18 16 11 5 5 9 12 14 17 19 18 18 19 18 18 18 18 19 19 19 21
9 9 9 8 7 7 10 12 14 15 16 15 15 16 18 20 23 25 24 24 24 25 25 24 25 26 25 25 26 27 27 26 26 27 26 25 26 28 30 30 26 22 20 18 17 19 19 19 20 21 18 14 14 13 11 7 3 3 6 7 8 12 14 13 12 13 13 13 13 13 14 16 19 24
9 9 8 7 6 6 8 10 13 15 17 19 19 19 19 22 25 27 27 26 26 27 27 26 26 26 25 25 25 25 26 25 24 25 25 25 26 28 28 28 29 29 27 23 21 22 22 19 19 21 20 19 19 16 9 6 5 5 5 5 5 6 9 9 7 7 6 5 6 9 13 17 21 25
9 10 9 8 8 9 12 16 19 21 22 23 21 20 21 22 24 25 25 24 24 25 25 24 24 23 23 23 23 24 24 23 23 23 24 24 25 27 28 28 29 30 27 23 21 21 22 22 20 20 20 18 19 18 9 6 9 8 5 5 4 3 5 6 4 3 5 8 10 13 17 19 21 24
9 10 10 11 13 15 19 23 25 25 24 21 19 18 19 20 21 22 23 23 23 24 24 24 24 23 23 23 23 23 23 22 22 22 23 24 24 25 26 28 30 31 30 27 24 23 23 23 22 21 21 19 18 16 9 6 9 10 7 6 4 3 3 4 6 8 10 13 15 18 18 18 21 23
9 10 12 14 18 20 23 23 23 23 22 20 19 19 20 21 21 22 22 22 22 23 23 23 23 23 22 22 23 23 22 22 22 22 22 23 23 24 25 25 27 29 29 28 27 27 27 26 24 22 21 21 19 15 12 11 9 11 10 7 5 4 3 6 9 12 14 17 19 19 19 19 20 22
9 11 13 15 17 19 20 19 20 20 19 19 20 20 21 22 22 21 21 21 21 22 22 22 23 23 22 23 23 24 24 23 23 22 23 23 23 24 25 26 26 28 28 27 27 27 28 29 28 25 22 23 22 19 17 17 12 12 14 9 7 6 5 7 10 12 15 19 20 19 19 20 21 22
8 10 12 14 16 17 16 16 17 18 19 20 20 20 20 20 20 19 20 20 20 21 22 22 23 23 23 23 24 24 24 24 23 22 22 23 23 23 25 26 26 25 26 26 26 26 27 28 27 26 25 25 24 21 20 19 13 11 15 11 9 8 7 8 10 12 14 17 17 18 18 19 21 22
11 12 14 15 15 15 14 15 17 18 18 19 19 18 18 18 18 19 20 21 22 23 23 24 24 24 24 24 24 24 24 23 22 22 23 23 23 23 23 23 24 24 25 26 26 26 27 27 26 26 26 25 23 22 22 22 16 9 13 11 8 8 9 11 12 13 14 14 15 17 19 19 20 21
14 13 13 13 13 14 14 15 16 17 17 17 18 18 18 18 19 20 21 22 22 23 23 24 24 24 24 23 23 23 24 23 23 23 23 24 24 24 23 21 22 22 23 25 26 26 27 29 29 29 27 26 25 24 23 24 19 11 13 11 7 8 11 14 14 15 17 16 16 17 17 16 17 19
11 10 10 11 13 14 14 16 16 16 17 18 18 19 19 20 20 21 21 22 23 23 23 24 23 23 23 23 23 22 23 23 23 22 23 24 24 25 24 22 22 23 23 23 23 24 25 27 28 29 30 29 30 29 26 23 18 13 15 13 11 11 13 15 17 19 21 20 18 16 16 14 13 15
8 9 11 12 13 14 15 15 16 17 18 19 19 20 20 20 21 21 22 22 23 23 23 23 24 24 23 23 23 23 23 22 22 22 24 26 26 25 24 23 24 25 24 23 23 23 22 23 24 25 27 29 30 32 31 28 21 16 17 16 14 17 17 17 19 22 22 21 20 18 17 16 15 15
9 11 12 13 14 14 15 15 16 18 19 19 20 21 21 21 21 21 21 22 23 23 23 23 24 24 23 22 23 23 24 24 23 23 25 26 26 26 26 25 24 24 23 23 23 22 21 21 22 21 21 22 22 25 29 32 27 20 19 17 17 19 20 20 22 23 21 20 21 20 18 18 18 19
10 12 13 14 14 15 15 16 17 18 19 20 20 21 21 21 21 22 22 23 24 25 25 25 24 24 24 23 23 24 24 24 24 24 24 24 25 26 26 26 25 24 23 22 21 21 20 20 20 18 14 12 11 11 15 23 27 25 21 19 19 20 22 22 23 22 21 21 21 20 19 19 20 21
11 13 13 14 14 15 16 17 18 18 19 20 21 21 22 22 23 23 23 24 25 26 26 26 26 26 25 25 25 25 25 24 24 24 23 23 24 24 23 23 24 24 23 22 21 20 19 18 19 18 13 7 6 6 6 11 20 25 25 22 22 23 24 25 23 21 20 20 20 19 20 21 21 21
13 14 14 14 15 15 16 17 18 19 20 21 22 22 22 23 24 25 25 25 26 26 25 25 25 25 25 25 25 24 23 23 23 23 22 22 22 21 21 21 21 21 21 21 20 20 20 19 19 19 15 8 4 4 4 6 11 18 23 24 23 26 27 26 23 21 21 21 19 19 21 23 23 22
13 13 14 15 15 16 17 18 19 20 21 22 23 24 24 25 26 27 27 26 25 25 26 26 26 25 25 25 25 24 23 23 23 22 21 20 20 21 21 20 19 18 18 18 18 18 19 20 21 21 19 13 8 5 6 8 12 15 19 22 23 27 30 28 24 23 23 23 23 22 22 23 23 23
13 13 14 15 15 16 17 18 19 20 21 22 23 24 25 26 26 25 25 24 25 26 27 28 27 26 26 25 24 23 23 24 23 23 22 21 21 22 21 19 18 17 16 16 17 16 17 21 23 23 21 19 15 11 8 11 13 15 18 21 22 25 28 30 30 29 27 26 27 28 27 25 23 23
12 13 14 14 15 16 18 18 20 22 22 22 23 25 25 26 25 25 26 27 28 29 28 27 26 25 26 26 25 24 23 23 22 22 21 21 22 23 22 20 18 16 15 15 16 16 17 19 21 21 20 19 17 13 8 9 9 10 15 19 21 24 28 31 33 34 33 32 32 30 26 23 22 23
12 13 14 14 15 17 18 19 21 22 22 22 23 25 26 26 25 26 28 28 28 27 26 25 25 24 24 25 24 24 24 24 23 22 22 21 20 21 21 20 18 16 16 16 15 15 15 16 16 17 18 19 18 14 8 8 10 12 15 17 19 22 25 27 29 32 34 36 37 35 29 24 20 18
12 13 14 15 16 17 19 20 22 24 25 24 25 27 27 26 26 27 27 27 26 26 26 25 24 24 23 23 22 21 22 22 22 22 22 21 20 18 18 18 18 18 17 15 14 13 13 14 14 15 17 20 19 14 10 11 15 17 18 20 21 21 22 23 25 27 29 30 32 33 33 28 22 19
12 13 14 16 17 19 20 21 23 25 27 26 26 27 27 27 28 27 27 26 27 27 27 26 24 23 22 21 20 19 19 20 20 20 19 19 19 19 17 16 17 18 17 15 13 11 12 14 14 15 17 19 19 16 16 17 18 19 21 25 26 26 26 27 26 26 25 22 22 25 27 24 22 25
12 13 15 16 18 19 20 20 22 24 25 25 25 26 26 27 27 26 25 26 27 27 27 26 24 23 22 21 20 20 20 20 21 20 18 17 17 17 17 16 15 15 16 16 13 10 11 13 14 15 16 16 17 19 22 23 22 22 24 26 28 28 29 29 28 27 24 21 19 20 20 19 21 26
Wind_Direction
77 58 40 26 21 9 356 346 341 336 325 319 313 305 304 304 305 309 308 308 307 312 315 309 310 323 328 312 306 302 287 278 281 284 279 273 271 267 261 259 262 264 266 266 261 255 254 252 249 245 243 241 240 238 237 238 238 238 240 243 242 240 239 239 235 227 221 223 227 228 227 224 222 221
122 108 86 59 36 0 349 335 330 330 324 320 314 307 304 300 298 300 301 302 303 307 309 300 304 318 325 324 314 302 290 289 295 294 286 282 279 277 275 270 267 267 268 268 265 259 255 254 252 251 249 247 245 243 242 240 239 238 239 242 242 241 240 239 238 232 226 225 226 227 228 227 226 224
161 159 161 158 146 301 300 285 289 305 307 311 313 309 306 299 295 294 292 289 293 301 306 304 303 307 310 311 308 303 296 291 293 290 285 280 277 277 278 276 274 273 271 267 264 261 257 254 252 252 251 248 246 246 245 245 242 239 239 241 242 241 241 240 238 234 230 228 228 227 228 229 229 227
187 193 197 202 209 259 281 266 256 266 270 279 290 295 297 294 290 287 285 283 288 295 299 300 300 301 302 303 300 297 293 290 291 288 283 280 278 277 275 275 275 274 271 264 260 261 259 254 251 251 251 249 248 247 246 247 247 244 241 240 241 241 242 241 239 236 231 229 229 229 229 232 233 229
196 213 221 220 220 241 271 276 267 261 254 258 266 266 267 277 283 284 285 287 290 294 296 297 297 298 300 298 292 290 290 290 292 289 286 284 280 276 274 273 272 270 268 262 258 260 260 256 253 251 250 251 251 250 249 249 249 250 246 241 240 240 241 242 239 235 231 229 230 230 231 234 235 230
197 212 233 231 225 243 264 270 275 278 274 273 276 274 272 278 284 284 285 288 292 295 298 298 296 295 296 293 290 291 289 290 291 288 286 285 281 278 276 275 274 273 271 263 257 259 261 262 258 254 251 251 252 252 252 251 250 251 250 246 242 239 240 243 241 236 231 230 230 231 232 234 233 230
201 205 221 227 223 239 257 263 275 283 280 279 285 286 282 280 280 278 276 279 284 289 292 294 295 296 296 293 291 290 287 287 286 284 283 281 279 277 276 275 275 274 272 265 261 262 265 267 265 259 253 250 250 251 251 253 253 252 252 250 246 242 240 242 243 240 236 233 230 230 232 233 231 229
206 209 221 225 220 234 254 264 274 279 279 283 290 292 287 282 281 278 274 271 276 283 287 290 291 293 294 291 289 289 288 286 283 282 282 280 279 278 276 274 272 272 272 266 261 261 263 265 266 261 256 251 249 250 250 252 254 254 253 252 250 248 243 241 241 242 241 238 232 229 231 231 229 228
212 216 221 224 224 236 254 266 276 284 289 292 294 293 292 292 292 291 287 281 280 282 286 288 290 290 289 288 288 288 287 287 285 283 283 283 283 282 279 276 274 276 277 270 263 262 263 265 266 263 258 254 252 251 250 251 253 254 254 254 253 252 249 245 241 240 243 242 235 230 229 229 228 228
213 215 221 223 226 239 253 265 275 284 289 290 291 293 293 293 295 294 290 287 285 284 285 287 289 289 288 288 287 286 284 284 285 285 285 285 283 280 277 273 269 269 271 269 265 263 262 263 266 265 260 257 257 256 253 252 253 254 254 255 254 252 251 249 245 242 242 242 238 232 230 228 227 227
207 210 217 217 220 235 249 260 271 282 287 287 288 290 291 292 293 292 290 287 286 285 284 285 286 287 288 287 286 288 287 283 281 282 284 285 285 283 281 281 279 272 268 267 265 259 254 257 264 267 264 261 259 257 257 256 255 254 254 255 254 253 251 250 248 244 243 243 240 236 232 228 227 229
203 208 212 215 221 225 226 234 253 269 278 284 289 292 294 295 294 292 290 288 286 285 284 283 284 285 285 285 285 288 289 286 284 286 291 293 294 292 290 291 290 284 278 274 270 261 249 247 254 262 266 267 263 258 258 260 260 258 256 255 255 254 252 250 249 246 244 245 243 239 233 229 228 229
201 208 211 214 216 215 222 241 259 263 263 268 277 286 292 296 296 294 292 290 288 286 286 285 286 286 284 284 287 288 288 288 291 296 297 294 292 290 288 285 281 279 278 276 273 268 253 241 244 252 259 263 264 260 256 256 258 258 257 257 256 255 254 252 249 246 245 246 246 242 237 233 229 227
202 210 215 221 224 228 243 265 270 260 259 268 272 275 283 291 295 296 293 291 290 289 288 287 288 288 286 286 288 288 289 290 291 292 291 290 291 292 289 286 283 278 276 274 271 270 265 256 256 259 259 259 263 258 248 246 253 257 256 256 255 254 255 253 250 248 246 248 248 246 241 236 230 227
207 215 222 231 235 238 250 266 267 259 270 284 280 272 277 286 290 291 288 285 285 286 286 286 286 286 285 286 288 288 290 290 289 289 288 287 289 289 287 288 290 286 288 290 282 275 273 273 272 270 266 263 263 254 240 236 246 255 258 260 261 259 257 255 252 250 247 247 249 248 245 240 234 230
213 217 225 230 235 240 244 254 262 266 276 283 277 269 277 283 284 284 281 276 277 278 280 283 281 281 284 287 288 289 293 296 296 294 292 289 288 289 287 287 287 289 299 301 291 281 277 277 276 273 269 265 262 257 250 244 245 250 258 266 270 269 264 258 255 253 249 246 246 247 246 243 238 234
219 225 233 235 239 245 250 255 260 263 273 281 276 275 281 283 281 280 276 270 268 268 271 274 275 276 280 283 284 288 296 302 301 295 290 287 286 284 282 283 285 289 299 304 296 286 278 273 272 271 268 265 261 257 254 254 253 252 256 263 268 271 273 269 261 257 254 249 246 245 244 243 241 237
227 231 238 243 247 250 253 259 262 264 275 283 281 281 282 282 284 282 278 273 267 263 261 263 268 272 275 277 279 284 291 296 296 295 294 294 292 287 282 282 285 288 295 301 297 288 280 276 273 269 266 266 265 255 245 245 250 253 255 259 263 268 276 280 272 262 258 254 249 246 244 243 241 239
231 234 238 243 248 253 257 262 262 263 272 280 283 286 285 286 287 283 279 274 268 263 259 257 261 265 268 272 275 277 282 286 288 293 297 299 300 295 286 281 280 281 284 287 284 278 276 275 273 271 268 265 264 258 248 246 251 257 260 262 265 268 273 278 278 272 264 257 252 247 245 243 242 240
236 237 240 244 248 253 257 263 267 271 275 278 283 286 288 288 286 281 280 277 272 269 266 263 263 267 270 273 275 275 277 280 283 288 291 293 294 289 282 278 275 274 274 271 268 270 272 271 269 271 270 266 262 258 251 248 251 257 265 271 274 274 273 273 276 275 270 263 256 249 245 243 242 240
241 242 242 245 253 258 260 268 276 280 279 278 281 285 287 288 286 285 286 284 279 276 274 272 271 271 273 274 276 278 280 281 282 283 281 279 279 275 272 272 273 273 271 265 261 264 267 265 265 268 269 264 261 258 250 242 240 248 263 273 277 277 276 276 274 271 268 266 259 251 246 242 238 234
247 252 249 250 256 262 266 271 275 276 276 276 280 285 287 286 286 289 290 288 286 283 280 279 278 277 276 275 274 276 279 280 280 275 269 266 266 264 264 268 272 273 270 266 263 265 269 269 265 267 270 265 259 256 248 237 229 245 272 284 283 280 279 276 271 266 262 260 255 248 241 234 226 222
256 264 268 271 268 264 265 267 268 270 274 277 281 285 285 285 287 291 293 290 289 289 288 286 285 283 281 277 274 273 272 273 272 268 266 263 259 258 259 263 268 272 269 265 263 264 268 270 266 264 267 267 264 254 238 231 238 258 273 285 286 284 283 277 269 264 258 250 244 238 231 223 213 207
272 278 286 290 278 262 258 258 260 266 271 276 283 284 281 281 285 289 291 289 289 290 291 288 284 282 280 277 275 273 271 269 266 263 261 258 256 257 258 258 258 261 263 265 271 274 276 276 272 266 263 264 270 258 227 219 266 263 245 260 274 282 285 281 272 264 254 244 238 228 218 211 203 196
287 289 293 297 289 285 286 283 285 289 290 293 293 285 279 279 282 285 287 287 285 283 283 282 279 278 276 274 272 270 269 266 263 261 258 254 252 254 256 256 256 259 261 262 268 278 284 284 280 276 269 263 267 268 240 198 218 227 223 238 253 271 279 278 273 263 242 222 211 200 196 197 197 195
291 292 292 292 289 293 302 304 306 306 305 304 298 288 283 284 287 288 288 287 283 278 277 277 276 274 273 272 270 269 268 265 263 261 258 256 254 253 254 255 255 258 261 262 264 270 275 277 278 279 275 268 268 273 260 196 205 214 212 223 226 238 256 251 238 198 152 142 155 168 177 183 186 188
293 293 292 288 284 288 294 299 303 306 307 306 300 295 293 294 294 293 289 285 280 276 274 273 272 271 271 270 269 268 267 266 265 263 260 259 258 257 257 256 256 258 260 262 263 263 266 270 273 275 275 275 276 280 275 228 208 202 200 209 201 192 218 205 182 160 146 145 152 159 164 169 174 178
293 292 291 288 287 291 296 300 306 309 309 307 304 301 301 300 296 291 286 282 279 277 274 271 270 270 269 268 268 268 268 268 268 266 264 263 260 259 259 258 258 260 260 259 259 258 259 263 267 270 271 272 273 276 279 274 238 197 190 193 179 172 172 164 164 160 154 152 151 152 153 155 162 170
286 285 288 293 298 301 304 309 312 310 308 307 305 304 302 298 291 286 284 282 279 276 274 271 270 269 269 267 268 268 268 268 268 266 265 264 262 260 260 260 260 260 260 260 258 256 255 256 260 265 268 267 268 267 271 277 259 201 187 184 167 166 165 155 156 157 156 155 152 150 150 152 157 164
305 302 302 306 308 306 306 310 309 305 304 305 304 303 300 293 284 281 282 281 277 275 274 272 271 271 271 269 269 268 267 266 264 263 262 262 260 259 259 259 258 258 257 257 255 253 253 251 253 258 259 259 263 265 266 274 267 204 185 182 166 161 164 160 158 159 159 157 153 151 151 153 157 162
319 313 310 311 310 307 308 312 310 307 305 305 304 303 299 292 287 285 285 283 281 279 278 276 274 274 274 271 267 266 264 263 261 260 259 259 259 258 257 257 258 258 257 256 254 252 252 250 250 253 253 251 256 258 260 269 269 215 178 181 178 169 168 163 159 161 162 158 154 153 151 150 154 160
315 310 307 311 316 316 314 312 311 309 306 306 306 304 301 298 294 292 289 286 283 281 279 278 277 278 278 274 271 269 267 264 263 261 259 258 257 256 256 256 258 259 258 258 256 254 253 252 250 250 250 249 251 251 252 261 261 217 178 185 194 178 171 167 162 163 162 157 152 152 151 149 153 158
325 313 312 320 323 322 317 313 311 311 309 308 307 304 302 300 297 294 292 288 285 282 280 279 279 279 278 276 275 275 272 268 265 261 259 259 257 256 255 253 254 255 256 257 258 255 253 252 249 249 249 249 250 250 249 256 257 223 192 193 192 177 174 172 167 164 162 157 150 149 150 149 149 153
338 319 324 330 327 322 319 315 312 312 311 309 307 305 304 301 297 294 291 288 285 284 282 279 278 278 277 275 273 272 271 269 265 261 259 259 257 255 253 251 252 253 253 255 256 255 253 251 249 250 251 250 252 252 250 250 250 226 204 203 194 178 174 174 169 165 163 159 151 144 145 148 149 150
337 334 335 331 324 320 316 313 311 312 311 310 308 306 304 301 297 294 290 286 285 285 284 282 280 278 276 275 272 269 267 266 264 262 260 258 255 253 251 250 251 251 250 251 252 252 251 248 244 246 250 249 251 253 250 247 242 221 200 199 194 180 172 171 169 164 160 157 151 144 143 148 151 151
334 339 333 323 320 318 314 311 312 312 310 308 306 304 301 298 295 293 291 289 289 288 285 282 280 277 274 272 270 268 265 263 263 261 257 254 252 251 249 249 249 250 249 249 249 248 246 241 234 235 242 244 242 247 246 240 232 218 198 185 180 176 170 166 165 162 158 155 153 148 147 150 152 151
336 335 327 322 320 317 313 313 312 310 307 305 303 302 299 296 294 293 292 290 289 287 283 280 278 275 272 270 269 266 263 261 260 259 255 252 250 248 246 245 245 246 245 246 246 245 242 236 230 228 233 240 237 239 236 221 216 214 207 190 173 168 166 160 157 157 157 155 154 151 147 145 145 150
339 335 328 324 320 315 313 312 309 308 307 306 305 302 299 296 294 293 292 290 288 285 282 279 276 273 271 269 267 266 263 260 260 259 256 251 246 243 242 242 241 240 241 243 243 241 238 233 228 226 229 232 226 221 219 194 188 198 206 199 179 165 163 160 154 153 153 149 146 145 146 144 144 151
341 337 330 326 320 316 313 311 309 310 311 309 307 305 302 299 297 296 294 291 289 287 285 282 278 275 273 270 267 266 264 262 261 260 256 251 245 240 238 239 239 239 238 239 240 238 234 230 227 227 227 225 222 225 213 190 178 183 196 202 191 173 163 159 153 150 150 148 141 137 139 142 145 153
340 334 329 325 320 317 315 312 312 314 315 312 309 306 304 302 300 299 296 292 290 290 289 287 283 278 274 270 267 265 263 260 258 257 255 252 248 243 239 237 238 238 236 237 239 237 233 231 230 230 228 225 228 235 211 175 171 177 183 193 201 192 178 169 161 154 151 150 145 139 137 139 142 149
337 332 329 326 323 320 318 316 316 317 316 313 310 307 306 304 301 298 297 296 295 293 291 289 286 282 278 274 271 267 264 262 260 258 256 252 248 245 241 238 236 236 236 238 238 235 236 239 238 234 229 221 214 210 186 152 147 155 161 170 184 188 183 179 173 165 160 156 148 140 136 138 140 144
336 332 329 328 326 323 321 320 320 319 318 315 312 311 310 306 303 301 300 299 298 296 293 291 289 286 283 280 276 270 266 263 261 259 257 254 248 243 238 233 232 233 234 236 239 236 237 240 237 227 219 211 198 186 170 151 143 138 139 148 160 167 171 174 173 167 163 161 155 149 145 143 141 142
335 333 331 329 327 325 324 323 323 323 322 319 316 315 313 310 307 305 303 302 300 299 298 297 294 290 286 284 280 275 269 265 261 258 255 251 245 239 233 229 229 230 232 236 241 239 230 226 222 213 204 200 194 184 163 147 144 139 135 137 141 146 153 159 160 158 157 159 159 157 154 153 153 157
335 333 332 331 327 326 326 326 326 327 327 323 319 316 314 312 310 307 305 304 304 303 302 301 298 294 290 287 283 278 272 268 265 260 254 249 243 237 234 234 230 228 230 233 236 231 218 210 208 206 201 196 189 175 155 143 140 138 136 135 133 133 135 138 141 143 144 148 154 155 154 154 156 157
334 334 333 330 329 329 328 327 328 329 329 326 323 319 316 314 313 311 308 308 308 308 307 305 301 297 295 292 288 284 280 276 272 264 255 248 242 234 232 233 230 227 228 227 221 210 202 199 201 204 200 189 176 163 151 144 140 136 133 132 131 130 130 130 130 129 125 124 135 146 150 150 151 151